This demonstration page uses our WeatherBlox Daily Observations layout. Learn more.

Left ArrowRight Arrow

Hourly Observations for May 31, 2022

Temp ( °F °C ) Dew Point ( °F °C ) Humidity (%) Winds ( mph kmh ) Pressure ( in mb ) Visibility ( mi km ) Precip ( " mm )
12:15 am 00:15 undefined 75 23.8 64 17.5 68 68 S 9 15 29.95 1014 10 16 0.00 0.00
12:35 am 00:35 undefined 75 23.8 63 17.4 67 67 S 7 11 29.95 1014 10 16 0.00 0.00
12:55 am 00:55 undefined 74 23.6 63 17.2 67 67 SSW 10 17 29.95 1014 10 16 0.00 0.00
1:15 am 01:15 undefined 74 23.3 63 17.3 69 69 S 9 15 29.96 1014 10 16 0.00 0.00
1:35 am 01:35 undefined 74 23.2 63 17.3 70 70 SSW 10 17 29.97 1015 10 16 0.00 0.00
1:55 am 01:55 undefined 73 22.8 63 17.3 71 71 SSW 10 17 29.97 1015 10 16 0.00 0.00
2:15 am 02:15 undefined 72 22.4 64 17.5 74 74 SSW 7 11 29.97 1015 10 16 0.00 0.00
2:35 am 02:35 undefined 72 22 64 17.5 76 76 Calm 29.97 1015 10 16 0.00 0.00
2:55 am 02:55 undefined 71 21.8 64 17.5 77 77 S 8 13 29.97 1015 10 16 0.00 0.00
3:15 am 03:15 undefined 71 21.4 64 17.5 79 79 S 3 6 29.96 1015 10 16 0.00 0.00
3:35 am 03:35 undefined 70 21.2 64 17.5 80 80 S 5 7 29.96 1015 10 16 0.00 0.00
3:55 am 03:55 undefined 70 21.3 64 17.5 79 79 S 7 11 29.96 1015 10 16 0.00 0.00
4:15 am 04:15 undefined 69 20.8 64 17.5 82 82 Calm 29.96 1015 10 16 0.00 0.00
4:35 am 04:35 undefined 69 20.5 63 17.4 82 82 Calm 29.96 1015 10 16 0.00 0.00
4:55 am 04:55 undefined 68 20 63 17.2 84 84 Calm 29.98 1015 10 16 0.00 0.00
5:15 am 05:15 undefined 67 19.5 63 17.1 86 86 Calm 30.00 1016 10 16 0.00 0.00
5:35 am 05:35 undefined 67 19.2 63 17.1 88 88 Calm 30.00 1016 10 16 0.00 0.00
5:55 am 05:55 undefined 66 19.1 63 17.1 88 88 Calm 30.00 1016 10 16 0.00 0.00
6:15 am 06:15 undefined 66 18.8 63 17 89 89 Calm 30.01 1016 10 16 0.00 0.00
6:35 am 06:35 undefined 66 18.8 63 17 89 89 Calm 30.01 1016 10 16 0.00 0.00
6:55 am 06:55 undefined 67 19.2 63 17.4 89 89 Calm 30.03 1017 10 16 0.00 0.00
7:15 am 07:15 undefined 68 20 64 17.6 86 86 S 6 9 30.04 1017 10 16 0.00 0.00
7:35 am 07:35 undefined 69 20.8 64 17.8 83 83 S 8 13 30.03 1017 10 16 0.00 0.00
7:55 am 07:55 undefined 71 21.6 64 18 80 80 S 9 15 30.03 1017 10 16 0.00 0.00
8:15 am 08:15 undefined 72 22.3 64 18 77 77 S 13 20 30.04 1017 10 16 0.00 0.00
8:35 am 08:35 undefined 74 23.1 65 18.2 74 74 SSW 10 17 30.04 1017 10 16 0.00 0.00
8:55 am 08:55 undefined 75 24 65 18.3 71 71 S 10 17 30.03 1017 10 16 0.00 0.00
9:15 am 09:15 undefined 76 24.6 65 18.4 68 68 S 12 19 30.02 1017 10 16 0.00 0.00
9:35 am 09:35 undefined 77 25 65 18.4 67 67 SSW 14 22 30.02 1017 10 16 0.00 0.00
9:55 am 09:55 undefined 78 25.7 65 18.5 65 65 S 14 22 30.02 1017 10 16 0.00 0.00
10:15 am 10:15 undefined 80 26.5 66 18.9 63 63 S 10 17 30.02 1016 10 16 0.00 0.00
10:35 am 10:35 undefined 80 26.6 65 18.3 60 60 SSW 15 24 30.00 1016 10 16 0.00 0.00
10:55 am 10:55 undefined 81 27.1 65 18.6 60 60 SW 13 20 30.00 1016 10 16 0.00 0.00
11:15 am 11:15 undefined 82 27.7 65 18.5 57 57 S 14 22 29.99 1016 10 16 0.00 0.00
11:35 am 11:35 undefined 82 28 66 18.7 57 57 SW 15 24 29.99 1016 10 16 0.00 0.00
11:55 am 11:55 undefined 83 28.4 65 18.4 55 55 SSW 16 26 29.99 1016 10 16 0.00 0.00
12:15 pm 12:15 undefined 84 28.9 65 18.5 53 53 S 14 22 29.98 1015 10 16 0.00 0.00
12:35 pm 12:35 undefined 84 29.1 65 18.3 52 52 SSW 13 20 29.98 1015 10 16 0.00 0.00
12:55 pm 12:55 undefined 84 29 64 18 51 51 SSW 17 28 29.98 1015 10 16 0.00 0.00
1:15 pm 13:15 undefined 85 29.4 64 17.7 49 49 SW 14 22 29.99 1015 10 16 0.00 0.00
1:35 pm 13:35 undefined 85 29.7 63 17 46 46 SW 18 30 30.00 1016 10 16 0.00 0.00
1:55 pm 13:55 undefined 85 29.5 64 17.8 49 49 SW 17 28 30.00 1016 10 16 0.00 0.00
2:15 pm 14:15 undefined 86 30 63 17 46 46 SW 17 28 29.98 1015 10 16 0.00 0.00
2:35 pm 14:35 undefined 87 30.4 64 17.6 46 46 SW 16 26 29.97 1015 10 16 0.00 0.00
2:55 pm 14:55 undefined 86 30.1 62 16.9 45 45 SSW 13 20 29.97 1015 10 16 0.00 0.00
3:15 pm 15:15 undefined 87 30.4 62 16.9 44 44 WSW 17 28 29.97 1015 10 16 0.00 0.00
3:35 pm 15:35 undefined 87 30.3 62 16.8 44 44 SSW 15 24 29.97 1015 10 16 0.00 0.00
3:55 pm 15:55 undefined N/A N/A N/A undefined N/A N/A N/A 0.00 0.00
4:15 pm 16:15 undefined N/A N/A N/A undefined N/A N/A N/A 0.00 0.00
4:35 pm 16:35 undefined N/A N/A N/A undefined N/A N/A N/A 0.00 0.00
4:55 pm 16:55 undefined 86 29.9 62 16.7 45 45 SW 12 19 29.96 1015 N/A 0.00 0.00
5:15 pm 17:15 undefined 85 29.5 62 16.4 45 45 SW 13 20 29.97 1015 10 16 0.00 0.00
5:35 pm 17:35 undefined N/A N/A N/A undefined N/A N/A N/A 0.00 0.00
5:55 pm 17:55 undefined 84 29 62 16.5 47 47 SW 12 19 29.95 1014 10 16 0.00 0.00
6:15 pm 18:15 undefined 83 28.5 63 17 50 50 SW 12 19 29.94 1014 10 16 0.00 0.00
6:35 pm 18:35 undefined 83 28.4 63 17.3 51 51 undefined N/A 29.94 1014 10 16 0.00 0.00
6:55 pm 18:55 undefined 83 28.2 64 17.7 53 53 undefined N/A 29.93 1014 10 16 0.00 0.00
7:15 pm 19:15 undefined 83 28.5 65 18.1 53 53 Calm 29.93 1014 10 16 0.00 0.00
7:35 pm 19:35 undefined 83 28.2 65 18.1 54 54 Calm 29.93 1014 10 16 0.00 0.00
7:55 pm 19:55 undefined N/A N/A N/A undefined N/A N/A N/A 0.00 0.00
8:15 pm 20:15 undefined N/A N/A N/A undefined N/A N/A N/A 0.00 0.00
8:35 pm 20:35 undefined N/A N/A N/A undefined N/A N/A N/A 0.00 0.00
8:55 pm 20:55 undefined 79 26 64 17.7 60 60 S 8 13 29.94 1014 10 16 0.00 0.00
9:15 pm 21:15 undefined 78 25.5 64 17.6 62 62 S 8 13 29.94 1014 10 16 0.00 0.00
9:35 pm 21:35 undefined 77 25.1 64 17.6 63 63 S 7 11 29.94 1014 10 16 0.00 0.00
9:55 pm 21:55 undefined 77 25 64 17.5 63 63 S 6 9 29.94 1014 10 16 0.00 0.00
10:15 pm 22:15 undefined 76 24.5 64 17.5 65 65 S 7 11 29.94 1014 10 16 0.00 0.00
10:35 pm 22:35 undefined 76 24.4 64 17.5 66 66 S 7 11 29.95 1014 10 16 0.00 0.00
10:55 pm 22:55 undefined 76 24.2 64 17.5 66 66 SW 7 11 29.96 1015 10 16 0.00 0.00
11:15 pm 23:15 undefined 75 24.1 64 17.5 67 67 SSW 7 11 29.96 1015 10 16 0.00 0.00
11:35 pm 23:35 undefined 75 24 64 17.6 68 68 SSW 7 11 29.97 1015 10 16 0.00 0.00
11:55 pm 23:55 undefined 74 23.5 64 17.5 69 69 S 6 9 29.97 1015 10 16 0.00 0.00

Powered by AerisWeather